Location: Unspecified
(41.5000°N, 0.0000°E)
Time: 21:12:17
(UTC+00:00)

Courier 1B Rocket - Pass Details

Date: 03 July 2019
Orbit: 920 x 1202 km, 28.2° (Epoch: 16 July)

Event Time Altitude Azimuth Distance (km) Brightness Sun altitude
Rises 01:57:30 0° 250° (WSW) 4,083 - -20.4°
Reaches altitude 10° 02:00:47 10° 240° (WSW) 3,101 - -20.1°
Exits shadow 02:06:41 29° 190° (S) 1,976 6.1 -19.5°
Maximum altitude 02:07:10 29° 183° (S) 1,963 6.1 -19.5°
Drops below altitude 10° 02:13:18 10° 127° (SE) 2,964 7.5 -18.9°
Sets 02:16:22 0° 116° (ESE) 3,875 8.2 -18.6°
